ORBCOMM FM110 [+] (41182 NORAD) Tracking and Keplerian Element Data

This shows tracking and keplerian element data for the satellite.

Feedback or suggestion? Click here.




ElementValue
Catalog41182
NameORBCOMM FM110 [+]
Epoch Orbit13637
Epoch Day198.69399177
Epoch Year2018
RAAN287.732
Inclination47.0021
Eccentricity0.0001659
Argument of Perigee180.8613
Mean Anonmoly179.2268
Mean Motion14.54719075
Decay Rate-5.3E-07
L11 41182U 15081D 18198.69399177 -.00000053 00000-0 26075-4 0 9992
L22 41182 47.0021 287.7320 0001659 180.8613 179.2268 14.54719075136377

Live tracking and technical data element details for ORBCOMM FM110 [+] (NORAD 41182). ORBCOMM FM110 [+] can be tracked NOW for your location showing map with azimuth and elevation plus other details from your city location.

Track the satellite on the map from your city or location and see movement details for azimuth, elevation, latitude, longitude, range, height, and movement on the map or in text.







IsCatalogInMostPopularTable: catalog: 41182, numindb: 66
Update: records affected: 1



GetName: 41182 ORBCOMM FM110 [+]

Hit Count: updated at: Fri, 20 Jul 2018 02:35:38 GMT